Weather History for Charlevoix, MI

Change the Weather History Date:

Tuesday, April 16, 2013

  Actual Average Record
Temperature  
Mean Temperature 40 °F -  
Max Temperature 46 °F 43 °F 87 °F (2002)
Min Temperature 34 °F 33 °F 13 °F (2014)
Degree Days  
Heating Degree Days 25    
Moisture  
Dew Point 32 °F    
Average Humidity 73    
Maximum Humidity 91    
Minimum Humidity 56    
Precipitation  
Precipitation 0.00 in - - ()
Sea Level Pressure  
Sea Level Pressure 30.10 in    
Wind  
Wind Speed 10 mph (West)    
Max Wind Speed 21 mph    
Max Gust Speed 25 mph    
Visibility 10 miles    
Events      
Averages and records for this station are not official NWS values.
T = Trace of Precipitation, MM = Missing Value Source: NWS Daily Summary

Daily Weather History Graph

Daily Weather History Graph

Search for Another Location

Airport:

Trip Planner

Search our weather history database for the weather conditions in past years. The results will help you decide how hot, cold, wet, or windy it might be!

Date:

Astronomy

Apr. 16, 2013 Rise Set
Actual Time 6:53 AM EDT 8:28 PM EDT
Civil Twilight 6:22 AM EDT 8:59 PM EDT
Nautical Twilight 5:45 AM EDT 9:37 PM EDT
Astronomical Twilight 5:04 AM EDT 10:18 PM EDT
Moon 11:04 AM EDT (4/16) 1:32 AM EDT (4/16)
Length of Visible Light 14h 36m
Length of Day
13h 34m
Waxing Crescent, 33% of the Moon is Illuminated
Apr 16
Waxing Crescent
Apr 18
First Quarter
Apr 25
Full
May 2
Last Quarter
May 9
New

Hourly Weather History & Observations

Time (EDT) Temp. Windchill Dew Point Humidity Pressure Visibility Wind Dir Wind Speed Gust Speed Precip Events Conditions
12:15 AM 41.0 °F 34.7 °F 35.8 °F 82% 29.90 in 10.0 mi WSW 10.4 mph - N/A   Clear
12:34 AM 40.8 °F 33.7 °F 33.6 °F 76% 29.91 in 10.0 mi WSW 12.7 mph - N/A   Clear
12:54 AM 40.1 °F 33.2 °F 32.7 °F 75% 29.92 in 10.0 mi West 11.5 mph - N/A   Clear
1:15 AM 39.2 °F 33.0 °F 32.0 °F 75% 29.92 in 10.0 mi WSW 9.2 mph - N/A   Clear
1:34 AM 38.8 °F 33.8 °F 32.0 °F 76% 29.92 in 10.0 mi WSW 6.9 mph - N/A   Clear
1:54 AM 39.0 °F 34.0 °F 32.0 °F 76% 29.92 in 10.0 mi West 6.9 mph - N/A   Clear
2:15 AM 38.3 °F - 31.3 °F 76% 29.93 in 10.0 mi Calm Calm - N/A   Scattered Clouds
2:34 AM 37.6 °F 33.1 °F 31.1 °F 77% 29.93 in 10.0 mi West 5.8 mph - N/A   Clear
2:54 AM 37.0 °F 31.0 °F 30.9 °F 79% 29.93 in 10.0 mi WSW 8.1 mph - N/A   Clear
3:15 AM 37.4 °F 34.9 °F 30.9 °F 77% 29.93 in 10.0 mi WSW 3.5 mph - N/A   Clear
3:34 AM 36.5 °F 32.7 °F 30.7 °F 80% 29.93 in 10.0 mi WSW 4.6 mph - N/A   Clear
3:55 AM 36.5 °F 29.7 °F 30.2 °F 78% 29.93 in 10.0 mi West 9.2 mph - N/A   Clear
4:14 AM 36.5 °F 30.3 °F 30.2 °F 78% 29.93 in 10.0 mi WSW 8.1 mph - N/A   Clear
4:34 AM 36.1 °F 31.4 °F 30.0 °F 78% 29.94 in 10.0 mi SW 5.8 mph - N/A   Clear
4:54 AM 35.6 °F 30.7 °F 30.6 °F 82% 29.94 in 10.0 mi SW 5.8 mph - N/A   Clear
5:14 AM 35.6 °F 30.7 °F 30.2 °F 81% 29.95 in 10.0 mi SW 5.8 mph - N/A   Clear
5:35 AM 35.6 °F 30.7 °F 30.2 °F 81% 29.95 in 10.0 mi SW 5.8 mph - N/A   Clear
5:54 AM 35.2 °F 30.3 °F 30.0 °F 81% 29.94 in 10.0 mi SW 5.8 mph - N/A   Clear
6:14 AM 35.1 °F 27.9 °F 30.0 °F 82% 29.96 in 10.0 mi SW 9.2 mph - N/A   Clear
6:34 AM 35.4 °F 29.7 °F 29.8 °F 80% 29.95 in 10.0 mi SW 6.9 mph - N/A   Clear
6:54 AM 35.1 °F 28.6 °F 29.8 °F 81% 29.97 in 10.0 mi WSW 8.1 mph - N/A   Clear
7:15 AM 35.1 °F 30.1 °F 29.8 °F 81% 29.97 in 10.0 mi SW 5.8 mph - N/A   Clear
7:34 AM 35.4 °F 29.0 °F 30.2 °F 81% 29.97 in 10.0 mi WSW 8.1 mph - N/A   Clear
8:15 AM 37.8 °F 30.2 °F 31.3 °F 77% 29.99 in 10.0 mi WSW 11.5 mph 17.3 mph N/A   Clear
8:34 AM 38.3 °F 30.1 °F 32.0 °F 78% 30.00 in 10.0 mi West 13.8 mph - N/A   Clear
8:55 AM 38.8 °F 30.4 °F 32.2 °F 77% 30.00 in 10.0 mi WSW 15.0 mph 20.7 mph N/A   Clear
9:14 AM 39.4 °F 31.4 °F 32.2 °F 75% 30.01 in 10.0 mi West 13.8 mph 18.4 mph N/A   Clear
9:34 AM 40.1 °F 32.4 °F 32.2 °F 73% 30.03 in 10.0 mi West 13.8 mph - N/A   Clear
9:55 AM 40.6 °F 32.7 °F 32.5 °F 73% 30.04 in 10.0 mi West 15.0 mph 23.0 mph N/A   Clear
10:14 AM 40.6 °F 32.3 °F 32.5 °F 73% 30.06 in 10.0 mi West 16.1 mph 24.2 mph N/A   Mostly Cloudy
10:34 AM 40.6 °F 31.2 °F 32.7 °F 73% 30.06 in 10.0 mi West 20.7 mph 25.3 mph N/A   Scattered Clouds
10:55 AM 41.5 °F 33.2 °F 32.9 °F 71% 30.07 in 10.0 mi West 17.3 mph 25.3 mph N/A   Clear
11:14 AM 42.1 °F 33.9 °F 32.4 °F 68% 30.07 in 10.0 mi West 17.3 mph 24.2 mph N/A   Clear
11:34 AM 42.4 °F 35.3 °F 32.5 °F 68% 30.07 in 10.0 mi West 13.8 mph 23.0 mph N/A   Clear
11:55 AM 42.3 °F 34.1 °F 32.4 °F 68% 30.09 in 10.0 mi West 17.3 mph 24.2 mph N/A   Clear
12:14 PM 43.3 °F 35.5 °F 32.5 °F 66% 30.10 in 10.0 mi West 17.3 mph 23.0 mph N/A   Clear
12:34 PM 43.9 °F 36.5 °F 32.7 °F 65% 30.10 in 10.0 mi West 16.1 mph - N/A   Clear
12:55 PM 43.7 °F 36.3 °F 32.7 °F 65% 30.12 in 10.0 mi West 16.1 mph 20.7 mph N/A   Clear
1:14 PM 44.2 °F 36.4 °F 32.7 °F 64% 30.12 in 10.0 mi West 18.4 mph - N/A   Clear
1:35 PM 44.2 °F 37.0 °F 32.2 °F 63% 30.13 in 10.0 mi West 16.1 mph 21.9 mph N/A   Clear
1:55 PM 43.9 °F 36.2 °F 32.0 °F 63% 30.14 in 10.0 mi West 17.3 mph 24.2 mph N/A   Clear
2:14 PM 44.8 °F 38.3 °F 32.5 °F 62% 30.14 in 10.0 mi West 13.8 mph 23.0 mph N/A   Clear
2:35 PM 45.1 °F 38.1 °F 32.2 °F 60% 30.14 in 10.0 mi West 16.1 mph 21.9 mph N/A   Clear
2:54 PM 45.3 °F 38.4 °F 32.2 °F 60% 30.16 in 10.0 mi West 16.1 mph 20.7 mph N/A   Clear
3:14 PM 45.5 °F 38.9 °F 32.0 °F 59% 30.17 in 10.0 mi WSW 15.0 mph 23.0 mph N/A   Clear
3:34 PM 46.2 °F 39.5 °F 31.8 °F 57% 30.17 in 10.0 mi WSW 16.1 mph 20.7 mph N/A   Clear
3:54 PM 45.5 °F 38.6 °F 31.8 °F 59% 30.17 in 10.0 mi West 16.1 mph 21.9 mph N/A   Clear
4:15 PM 45.9 °F 39.4 °F 31.6 °F 58% 30.18 in 10.0 mi West 15.0 mph 20.7 mph N/A   Clear
4:34 PM 46.6 °F - 31.8 °F 56% 30.18 in 10.0 mi WSW 15.0 mph 19.6 mph N/A   Clear
4:55 PM 46.4 °F 40.4 °F 32.0 °F 57% 30.19 in 10.0 mi West 13.8 mph 19.6 mph N/A   Clear
5:14 PM 46.4 °F 40.7 °F 32.0 °F 57% 30.19 in 10.0 mi West 12.7 mph 17.3 mph N/A   Clear
5:35 PM 45.9 °F 40.0 °F 32.0 °F 58% 30.20 in 10.0 mi West 12.7 mph - N/A   Clear
5:54 PM 45.1 °F 39.1 °F 31.8 °F 60% 30.21 in 10.0 mi West 12.7 mph 17.3 mph N/A   Scattered Clouds
6:14 PM 45.9 °F 39.7 °F 32.0 °F 58% 30.22 in 10.0 mi West 13.8 mph - N/A   Mostly Cloudy
6:35 PM 44.6 °F 39.2 °F 31.6 °F 60% 30.23 in 10.0 mi West 10.4 mph - N/A   Mostly Cloudy
6:54 PM 44.1 °F 38.1 °F 31.8 °F 62% 30.24 in 10.0 mi West 11.5 mph - N/A   Overcast
7:14 PM 43.2 °F 37.4 °F 32.0 °F 65% 30.25 in 10.0 mi West 10.4 mph - N/A   Mostly Cloudy
7:34 PM 41.5 °F 36.4 °F 32.0 °F 69% 30.26 in 10.0 mi West 8.1 mph - N/A   Scattered Clouds
7:54 PM 41.0 °F 35.2 °F 32.2 °F 71% 30.27 in 10.0 mi West 9.2 mph - N/A   Mostly Cloudy
8:15 PM 41.0 °F 36.4 °F 33.1 °F 73% 30.27 in 10.0 mi West 6.9 mph - N/A   Overcast
8:34 PM 39.7 °F 35.6 °F 32.9 °F 77% 30.28 in 10.0 mi West 5.8 mph - N/A   Mostly Cloudy
8:54 PM 37.6 °F 35.1 °F 32.5 °F 82% 30.29 in 10.0 mi WNW 3.5 mph - N/A   Scattered Clouds
9:15 PM 37.6 °F 35.1 °F 33.1 °F 84% 30.30 in 10.0 mi West 3.5 mph - N/A   Mostly Cloudy
9:34 PM 38.3 °F - 33.4 °F 83% 30.31 in 10.0 mi Calm Calm - N/A   Overcast
9:54 PM 37.4 °F 32.8 °F 32.2 °F 81% 30.32 in 10.0 mi North 5.8 mph - N/A   Mostly Cloudy
10:15 PM 37.2 °F 32.6 °F 32.0 °F 81% 30.33 in 10.0 mi North 5.8 mph - N/A   Mostly Cloudy
10:34 PM 36.5 °F 31.0 °F 31.6 °F 83% 30.35 in 10.0 mi North 6.9 mph - N/A   Mostly Cloudy
10:54 PM 36.1 °F 29.9 °F 32.0 °F 85% 30.35 in 10.0 mi North 8.1 mph - N/A   Overcast
11:15 PM 35.2 °F 30.3 °F 31.8 °F 87% 30.35 in 10.0 mi North 5.8 mph - N/A   Scattered Clouds
11:34 PM 34.9 °F 30.8 °F 32.0 °F 89% 30.36 in 10.0 mi NNE 4.6 mph - N/A   Clear
11:55 PM 34.3 °F 29.2 °F 32.0 °F 91% 30.36 in 10.0 mi North 5.8 mph - N/A   Clear